Regional Weather Roundup
Issued by NWS

Home | Current Version | Previous Version | Graphics & Text | Print | Product List | Glossary On
Versions: 1 2 3 4 5 6 7 8 9 10 11 12 13 14 15 16 17 18 19 20 21 22 23 24 25 26 27 28 29 30 31 32 33 34 35 36 37 38 39 40 41 42 43 44 45 46 47 48 49 50
000
ASUS43 KLOT 061006
RWRIL

ILLINOIS REGIONAL WEATHER ROUNDUP
NATIONAL WEATHER SERVICE CHICAGO/ROMEOVILLE IL
400 AM CST FRI MAR 06 2015

NOTE: "FAIR" INDICATES FEW OR NO CLOUDS BELOW 12,000 FEET WITH NO
SIGNIFICANT WEATHER AND/OR OBSTRUCTIONS TO VISIBILITY.

* THESE STATIONS ARE NOT UNDER NWS QUALITY CONTROL. THEY ALSO MAY NOT
  REPORT WEATHER SUCH AS PRECIPITATION OR FOG.

ILZ001-002-007-009-015-016-024-061100-
NORTHWEST ILLINOIS

CITY           SKY/WX    TMP DP  RH WIND       PRES   REMARKS
MOLINE         PTCLDY     6  -3  66 CALM      30.43F
STERLING*      PTCLDY     1  -4  78 CALM      30.44F
SAVANNA*       PTCLDY    -4  -8  80 S6        30.44F WCI -16
$$

ILZ003-004-008-010-011-017-018-061100-
NORTH CENTRAL ILLINOIS

CITY           SKY/WX    TMP DP  RH WIND       PRES   REMARKS
ROCKFORD       MOCLDY    -2  -8  76 S7        30.44F WCI -15
FREEPORT*      MOCLDY     0  -5  78 S10       30.43S WCI -16
ROCHELLE*      PTCLDY    -6 -10  82 S7        30.45F WCI -20
DE KALB*       PTCLDY    -5 -10  80 S8        30.44F WCI -21
PERU*          PTCLDY     2  -3  76 S6        30.48F WCI  -9
$$

ILZ005-006-012>014-019>023-061100-
NORTHEAST ILLINOIS

CITY           SKY/WX    TMP DP  RH WIND       PRES   REMARKS
CHICAGO-OHARE  PTCLDY     3  -4  72 SW6       30.46F WCI  -8
CHICAGO-MIDWAY PTCLDY     6  -2  69 SW7       30.49S WCI  -6
AURORA         MOCLDY    -2  -8  76 CALM      30.47F
LANSING*       PTCLDY    -4  -8  81 S5        30.50F WCI -15
JOLIET*        MOCLDY     0  -4  82 SW3       30.50S
WAUKEGAN       MOCLDY     0  -5  79 SW7       30.43F WCI -13
DUPAGE AIRPORT PTCLDY     0  -5  79 S3        30.45F
KANKAKEE*      MOCLDY    -3  -8  82 CALM      30.51F
WHEELING       PTCLDY     4  -4  69 S6        30.47F WCI  -7
MORRIS*        MOCLDY    -3  -5  90 S3        30.49S
ROMEOVILLE*    MOCLDY    -2  -6  82 SW7       30.48F WCI -16
NORTHERLY ISL    N/A      8   0  69 SW5         N/A  WCI   0
$$

LMZ740>746-061100-
SOUTHERN LAKE MICHIGAN

STATION/POSITION SKY/WX   TEMP    WIND        PRES    VSBY  WAVE
                          AIR SEA DIR/SP/G                  HT/PER
                          (F)     (DEG/KT/KT) (MB)    (MI)  (FT/S)
WAUKEGAN HARBOR             5                   N/A
HARRISON CRIB              11     220/ 11/ 16   N/A
BURNHAM HARBOR              9     200/  3/  9   N/A
CALUMET HARBOR              6     190/  6/  8 1031.2F
MICHIGAN CITY               5     180/  9/ 11   N/A
$$

ILZ025>027-034>036-040-047-049-050-058-095>099-061100-
WEST-CENTRAL ILLINOIS

CITY           SKY/WX    TMP DP  RH WIND       PRES   REMARKS
QUINCY         CLEAR     11   2  67 S10       30.45F WCI  -3
GALESBURG*     PTCLDY     4  -2  77 SE7       30.44F WCI  -8
MACOMB*        CLEAR      6   1  78 S10       30.48S WCI  -9
JACKSONVILLE*  FAIR      10   1  67 S7        30.50F WCI  -2
PITTSFIELD*    CLEAR     11   4  75 S7        30.49F WCI   0
$$

ILZ028>032-037-038-041>044-048-051>054-059>061-061100-
CENTRAL ILLINOIS

CITY           SKY/WX    TMP DP  RH WIND       PRES   REMARKS
PONTIAC        PTCLDY    -5  -9  81 SE3       30.51S
BLOOMINGTON    PTCLDY     1  -3  83 S6        30.49F WCI -10
DECATUR        PTCLDY    -8 -12  83 CALM      30.52F
PEORIA         CLEAR      6  -1  73 S8        30.49F WCI  -7
LACON*         PTCLDY     3  -5  70 CALM      30.49S
LINCOLN*       MOCLDY     1  -3  81 S5        30.55F WCI  -8
SPRINGFIELD    MOCLDY     3  -4  72 S8        30.52F WCI -10
TAYLORVILLE    PTCLDY     1  -2  85 S5        30.53S WCI  -8
$$

ILZ033-039-045-046-055>057-062-063-061100-
EAST-CENTRAL ILLINOIS

CITY           SKY/WX    TMP DP  RH WIND       PRES   REMARKS
CHAMPAIGN      MOCLDY    -7 -10  87 S6        30.51F WCI -20
DANVILLE*      PTCLDY    -6 -10  85 CALM      30.50R
RANTOUL*       MOCLDY    -6 -10  85 CALM      30.51F
MATTOON        PTCLDY     0  -5  79 S6        30.53S WCI -12
PARIS*         PTCLDY    -6  -9  84 CALM      30.55R
$$

ILZ079-100>102-061100-
SOUTHWEST ILLINOIS

CITY           SKY/WX    TMP DP  RH WIND       PRES   REMARKS
ALTON          PTCLDY     5   1  85 CALM      30.54F
BELLEVILLE     CLEAR     10   7  91 SW2       30.56S
CAHOKIA*       CLEAR     14   6  70 S7        30.56S WCI   4
SPARTA*        CLEAR     10   3  75 S5        30.57S WCI   1
$$

ILZ064>066-069>071-074>076-080>082-084>086-088>090-092>094-061100-
SOUTH-CENTRAL ILLINOIS

CITY           SKY/WX    TMP DP  RH WIND       PRES   REMARKS
CARBONDALE     MOCLDY     0  -5  79 CALM      30.58F
CAIRO*         FOG        3  -1  82 CALM      30.60S VSB 3/4
EFFINGHAM*     PTCLDY    -3  -9  75 CALM      30.57S
MARION         MOCLDY     5   0  78 CALM      30.59S
MT. VERNON     PTCLDY     1  -6  71 CALM      30.57S
CENTRALIA*     PTCLDY     8   2  79 SE3       30.56F
SALEM*         PTCLDY     8   3  79 SE3       30.56S
METROPOLIS*    MOCLDY     1  -1  90 CALM      30.58S
$$

ILZ067-068-072-073-078-083-087-091-061100-
SOUTHEAST ILLINOIS

CITY           SKY/WX    TMP DP  RH WIND       PRES   REMARKS
LAWRENCEVILLE  PTCLDY     1  -3  83 CALM      30.58F
FLORA*         PTCLDY     2  -1  87 CALM      30.57F
FAIRFIELD*     PTCLDY     2  -1  86 CALM      30.57S
HARRISBURG*    PTCLDY    -3  -6  84 CALM      30.60S
ROBINSON*      PTCLDY    -5  -8  86 CALM      30.59S
CARMI*         FOG        1  -3  86 CALM      30.58F VSB 1
$$

ABBREVIATIONS USED IN REMARKS
   TC - TEMPERATURE IN CELSIUS
  WCI - WIND CHILL INDEX
   HX - HEAT INDEX
  VSB - VISIBILITY
$$




USA.gov is the U.S. government's official web portal to all federal, state and local government web resources and services.